Regional Weather Roundup
Issued by NWS

Home | Current Version | Previous Version | Text Only | Print | Product List | Glossary On
Versions: 1 2 3 4 5 6 7 8 9 10 11 12 13 14 15 16 17 18 19 20 21 22 23 24 25 26 27 28 29 30 31 32 33 34 35 36 37 38 39 40 41 42 43 44 45 46 47 48 49 50
577
ASUS43 KIND 270159
RWRIN

WEATHER ROUNDUP FOR INDIANA
NATIONAL WEATHER SERVICE INDIANAPOLIS IN
1000 PM EDT FRI MAY 26 2017

NOTE: "FAIR" INDICATES FEW OR NO CLOUDS BELOW 12,000 FEET WITH NO
SIGNIFICANT WEATHER AND/OR OBSTRUCTIONS TO VISIBILITY.

* - STATION DOES NOT REPORT WEATHER SUCH AS PRECIPITATION OR FOG.

+ - STATION NOT QUALITY CONTROLLED BY THE NATIONAL WEATHER SERVICE.
    USE DATA WITH CAUTION...ESPECIALLY DEWPOINT AND RELATIVE
    HUMIDITY OBSERVATIONS.

INZ001>003-010>013-019-020-270300-
NORTHWEST INDIANA

CITY           SKY/WX    TMP DP  RH WIND       PRES   REMARKS
GARY /AIRPORT/ CLOUDY    57  54  88 E14       29.83S
MICHIGAN CITY+ CLOUDY    59  59 100 NE6       29.83S
MONTICELLO +   RAIN      65  63  95 CALM      29.78R
RENSSELAER +   CLOUDY    64  61  88 E8        29.79F

$$

LMZ046-743>745-270300-
SOUTHERN LAKE MICHIGAN

STATION/POSITION TIME  TEMP    WIND        PRES    WAVE
                       AIR SEA DIR/SP/G            HT
                 (UTC) (F)     (DEG/KT/KT) (MB)    (FT)
BURNS HARBOR     0140   56      70/ 17/ 21 1010.2F
MICHIGAN CITY    0130   55      50/ 18/ 20   N/A
5NW MICH CITY    0150   54 53   60/ 14/ 17   N/A     2

$$

INZ004-005-014>016-021>024-270300-
NORTH CENTRAL INDIANA

CITY           SKY/WX    TMP DP  RH WIND       PRES   REMARKS
GOSHEN         TSTM      61  57  87 N6        29.85R FOG
SOUTH BEND     LGT RAIN  59  59 100 NE6       29.85F

$$

INZ006>009-017-018-025>027-270300-
NORTHEAST INDIANA

CITY           SKY/WX    TMP DP  RH WIND       PRES   REMARKS
ANGOLA *+      CLOUDY    57  55  94 CALM      29.83S
FORT WAYNE     CLOUDY    64  60  87 E9        29.82S
KENDALLVILLE + RAIN      60  59  95 E5        29.84R

$$

INZ028-029-035-036-043>045-051>053-270300-
WEST CENTRAL INDIANA

CITY           SKY/WX    TMP DP  RH WIND       PRES   REMARKS
CRAWFORDSVL +  LGT RAIN N/A N/A N/A NW5       29.81R
GREENCASTLE +  CLOUDY    68  63  83 CALM      29.82S
LAFAYETTE      CLOUDY    67  66  97 N6        29.79R
TERRE HAUTE    CLOUDY    73  60  63 S8        29.79F

$$

INZ030>032-037>040-046>048-054>057-064-065-270300-
CENTRAL INDIANA

CITY           SKY/WX    TMP DP  RH WIND       PRES   REMARKS
COLUMBUS       CLOUDY    73  59  60 S8        29.83R
GREENWOOD *+   CLOUDY    71  63  76 CALM      29.85R
INDIANAPOLIS   TSTM      68  65  90 E3        29.82S
-EAGLE CREEK   CLOUDY    67  65  93 E5        29.82F
KOKOMO +       CLOUDY    66  63  90 SE10      29.82R
SHELBYVILLE    CLOUDY    74  62  66 NW7       29.86R THUNDER

$$

INZ033-034-041-042-049-050-058-059-270300-
EAST CENTRAL INDIANA

CITY           SKY/WX    TMP DP  RH WIND       PRES   REMARKS
MUNCIE         TSTM      68  63  84 SE16G26   29.79F
RICHMOND +     CLOUDY    68  61  77 SE9       29.84F

$$

INZ060-061-067>069-081>083-085>088-270300-
SOUTHWEST INDIANA

CITY           SKY/WX    TMP DP  RH WIND       PRES   REMARKS
EVANSVILLE     CLOUDY    76  64  66 SW14      29.83S
HUNTINGBURG *+ CLOUDY    76  63  64 SW12G21   29.83R

$$

INZ062-063-066-070>080-084-089>092-270300-
SOUTH CENTRAL AND SOUTHEAST INDIANA

CITY           SKY/WX    TMP DP  RH WIND       PRES   REMARKS
BLOOMINGTON    CLOUDY    76  59  55 SW8       29.82R
MADISON *+     CLOUDY    73  63  68 S5        29.87R
SEYMOUR +      CLOUDY    75  63  64 S10       29.83R

$$





USA.gov is the U.S. government's official web portal to all federal, state and local government web resources and services.